This is the latest recevied weather packets stored in our database for station/object WA2TQI. If no packets are shown the sender has not sent any weather packets the latest 10 day(s).
| Time | Temp. | Humidity | Pressure | Rain* | Wind** | Luminosity | Snow |
|---|---|---|---|---|---|---|---|
| 1777756532 | 15° C | 47% | 1011.8 hPa | 0 mm | - | - | - |
| 1777756230 | 15° C | 48% | 1011.7 hPa | 0 mm | - | - | - |
| 1777755927 | 15° C | 48% | 1011.6 hPa | 0 mm | - | - | - |
| 1777755624 | 15.56° C | 48% | 1011.6 hPa | 0 mm | - | - | - |
| 1777754109 | 15.56° C | 47% | 1011.3 hPa | 0 mm | - | - | - |
| 1777753806 | 15.56° C | 49% | 1011.3 hPa | 0 mm | - | - | - |
| 1777753502 | 15° C | 47% | 1011.4 hPa | 0 mm | - | - | - |
| 1777753200 | 15° C | 48% | 1011.6 hPa | 0 mm | - | - | - |
| 1777752896 | 15° C | 49% | 1011.7 hPa | 0 mm | - | - | - |
| 1777752593 | 15.56° C | 49% | 1011.8 hPa | 0 mm | - | - | - |
| 1777751986 | 15.56° C | 48% | 1011.8 hPa | 0 mm | - | - | - |
| 1777751684 | 16.11° C | 48% | 1011.9 hPa | 0 mm | - | - | - |
| 1777751077 | 15.56° C | 48% | 1012 hPa | 0 mm | - | - | - |
| 1777750470 | 15.56° C | 47% | 1012.1 hPa | 0 mm | - | - | - |
| 1777750165 | 16.67° C | 46% | 1012.1 hPa | 0 mm | - | - | - |
| 1777749862 | 16.67° C | 45% | 1012.2 hPa | 0 mm | - | - | - |
| 1777749559 | 16.67° C | 47% | 1012.2 hPa | 0 mm | - | - | - |
| 1777749257 | 16.11° C | 45% | 1012.3 hPa | 0 mm | - | - | - |
| 1777748955 | 16.67° C | 47% | 1012.5 hPa | 0 mm | - | - | - |
| 1777748652 | 16.11° C | 47% | 1012.5 hPa | 0 mm | - | - | - |
| 1777748348 | 15.56° C | 48% | 1012.5 hPa | 0 mm | - | - | - |
| 1777747436 | 15° C | 50% | 1013 hPa | 0 mm | - | - | - |
| 1777747133 | 16.11° C | 50% | 1012.8 hPa | 0 mm | - | - | - |
| 1777746829 | 16.11° C | 49% | 1012.9 hPa | 0 mm | - | - | - |
| 1777744706 | 15° C | 53% | 1013.2 hPa | 0 mm | - | - | - |
* Rain latest hour (hover to see other rain measurements)
** Current wind speed in m/s (hover to see current wind gust speed)